When you browse on this site, cookies collect data to enhance your experience and personalize the content and advertising you see.
Visit our Privacy Policy to learn more. By continuing to use the site, you agree to this use of cookies and data.
  • In Hungary
  • List of Countries
  • For 7 days
  • Water Temperature
  • Weather Map
  • News
  • Weather Widgets
  • user-avatar
    Login

    Hourly Weather Truhmyanka

    Today, 15 October, Tuesday

    Time Temperature Precipitation Wind Pressure Humidity
    00:00 +8°C° 0 mm 3 mps 758 mmHg 88%
    01:00 +8°C° 0.9 mm 3 mps 757 mmHg 90%
    02:00 +7°C° 0.9 mm 4 mps 756 mmHg 92%
    03:00 +8°C° 0.9 mm 5 mps 755 mmHg 94%
    04:00 +9°C° 0.9 mm 6 mps 754 mmHg 93%
    05:00 +10°C° 0.9 mm 7 mps 753 mmHg 93%
    06:00 +11°C° 0.9 mm 8 mps 752 mmHg 92%
    07:00 +12°C° 0.3 mm 8 mps 752 mmHg 90%
    08:00 +12°C° 0.3 mm 8 mps 751 mmHg 88%
    09:00 +13°C° 0.3 mm 8 mps 751 mmHg 86%
    10:00 +15°C° 0.1 mm 8 mps 751 mmHg 83%
    11:00 +16°C° 0.1 mm 8 mps 751 mmHg 79%
    12:00 +16°C° 0.1 mm 8 mps 751 mmHg 75%
    13:00 +16°C° 0.4 mm 8 mps 752 mmHg 74%
    14:00 +16°C° 0.4 mm 8 mps 752 mmHg 73%
    15:00 +15°C° 0.4 mm 7 mps 753 mmHg 72%
    16:00 +14°C° 0.1 mm 7 mps 753 mmHg 76%
    17:00 +13°C° 0.1 mm 6 mps 754 mmHg 81%
    18:00 +10°C° 0.1 mm 6 mps 755 mmHg 86%
    19:00 +9°C° 0 mm 5 mps 756 mmHg 86%
    20:00 +8°C° 0 mm 4 mps 757 mmHg 87%
    21:00 +7°C° 0 mm 4 mps 758 mmHg 87%
    22:00 +7°C° 0.1 mm 4 mps 758 mmHg 84%
    23:00 +6°C° 0.1 mm 5 mps 759 mmHg 82%

    Tomorrow, 16 October, Wednesday

    Time Temperature Precipitation Wind Pressure Humidity
    00:00 +5°C° 0.1 mm 6 mps 759 mmHg 79%
    01:00 +5°C° 0 mm 5 mps 760 mmHg 78%
    02:00 +3°C° 0 mm 5 mps 761 mmHg 78%
    03:00 +3°C° 0 mm 5 mps 762 mmHg 77%
    04:00 +2°C° 0 mm 5 mps 762 mmHg 74%
    05:00 +2°C° 0 mm 5 mps 763 mmHg 70%
    06:00 +2°C° 0 mm 5 mps 763 mmHg 67%
    07:00 +3°C° 0 mm 5 mps 764 mmHg 70%
    08:00 +3°C° 0 mm 5 mps 764 mmHg 74%
    09:00 +3°C° 0 mm 5 mps 765 mmHg 78%
    10:00 +5°C° 0 mm 5 mps 765 mmHg 74%
    11:00 +5°C° 0 mm 5 mps 766 mmHg 70%
    12:00 +6°C° 0 mm 4 mps 766 mmHg 65%
    13:00 +6°C° 0 mm 4 mps 766 mmHg 66%
    14:00 +6°C° 0 mm 4 mps 766 mmHg 66%
    15:00 +5°C° 0 mm 4 mps 767 mmHg 66%
    16:00 +5°C° 0 mm 3 mps 767 mmHg 71%
    17:00 +5°C° 0 mm 2 mps 767 mmHg 75%
    18:00 +4°C° 0 mm 2 mps 767 mmHg 80%
    19:00 +4°C° 0 mm 1 mps 768 mmHg 81%
    20:00 +4°C° 0 mm 1 mps 768 mmHg 83%
    21:00 +3°C° 0 mm 0 mps 768 mmHg 84%
    22:00 +2°C° 0 mm 0 mps 768 mmHg 85%
    23:00 +2°C° 0 mm 0 mps 768 mmHg 86%

    Day after tomorrow, 17 October, Thursday

    Time Temperature Precipitation Wind Pressure Humidity
    00:00 +2°C° 0 mm 0 mps 768 mmHg 87%
    01:00 +3°C° 0 mm 1 mps 768 mmHg 87%
    02:00 +3°C° 0 mm 1 mps 768 mmHg 88%
    03:00 +3°C° 0 mm 1 mps 768 mmHg 88%
    04:00 +3°C° 0 mm 1 mps 769 mmHg 88%
    05:00 +3°C° 0 mm 1 mps 769 mmHg 88%
    06:00 +2°C° 0 mm 2 mps 769 mmHg 87%
    07:00 +3°C° 0 mm 2 mps 768 mmHg 84%
    08:00 +3°C° 0 mm 3 mps 768 mmHg 81%
    09:00 +3°C° 0 mm 4 mps 768 mmHg 78%
    10:00 +3°C° 0 mm 5 mps 767 mmHg 73%
    11:00 +5°C° 0 mm 5 mps 766 mmHg 69%
    12:00 +5°C° 0 mm 6 mps 766 mmHg 64%
    13:00 +7°C° 0 mm 6 mps 765 mmHg 63%
    14:00 +7°C° 0 mm 6 mps 765 mmHg 61%
    15:00 +7°C° 0 mm 6 mps 764 mmHg 60%
    16:00 +7°C° 0 mm 6 mps 763 mmHg 61%
    17:00 +5°C° 0 mm 6 mps 763 mmHg 63%
    18:00 +6°C° 0 mm 5 mps 762 mmHg 65%
    19:00 +5°C° 0 mm 6 mps 762 mmHg 64%
    20:00 +5°C° 0 mm 6 mps 762 mmHg 63%
    21:00 +5°C° 0 mm 6 mps 761 mmHg 63%
    22:00 +5°C° 0 mm 6 mps 761 mmHg 62%
    23:00 +5°C° 0 mm 6 mps 760 mmHg 62%

    18 October, Friday

    Time Temperature Precipitation Wind Pressure Humidity
    00:00 +5°C° 0 mm 6 mps 760 mmHg 62%
    01:00 +6°C° 0 mm 5 mps 759 mmHg 64%
    02:00 +5°C° 0 mm 5 mps 759 mmHg 66%
    03:00 +5°C° 0 mm 5 mps 759 mmHg 68%
    04:00 +5°C° 0 mm 5 mps 758 mmHg 71%
    05:00 +5°C° 0 mm 4 mps 758 mmHg 74%
    06:00 +6°C° 0 mm 4 mps 758 mmHg 77%
    07:00 +6°C° 0.1 mm 4 mps 758 mmHg 80%
    08:00 +7°C° 0.1 mm 3 mps 758 mmHg 83%
    09:00 +8°C° 0.1 mm 3 mps 759 mmHg 86%
    10:00 +7°C° 0.2 mm 3 mps 759 mmHg 85%
    11:00 +6°C° 0.2 mm 4 mps 760 mmHg 83%
    12:00 +5°C° 0.2 mm 5 mps 760 mmHg 82%
    13:00 +5°C° 0.1 mm 4 mps 760 mmHg 80%
    14:00 +5°C° 0.1 mm 4 mps 761 mmHg 78%
    15:00 +5°C° 0.1 mm 3 mps 761 mmHg 76%
    16:00 +4°C° 0.1 mm 3 mps 762 mmHg 75%
    17:00 +4°C° 0.1 mm 4 mps 762 mmHg 75%
    18:00 +4°C° 0.1 mm 4 mps 763 mmHg 74%
    19:00 +3°C° 0 mm 4 mps 763 mmHg 77%
    20:00 +1°C° 0 mm 4 mps 764 mmHg 80%
    21:00 0°C° 0 mm 4 mps 765 mmHg 82%
    22:00 0°C° 0 mm 4 mps 765 mmHg 83%
    23:00 -1°C° 0 mm 4 mps 765 mmHg 84%

    19 October, Saturday

    Time Temperature Precipitation Wind Pressure Humidity
    00:00 0°C° 0 mm 3 mps 766 mmHg 85%
    01:00 -1°C° 0 mm 3 mps 766 mmHg 85%
    02:00 -1°C° 0 mm 3 mps 767 mmHg 86%
    03:00 -1°C° 0 mm 3 mps 767 mmHg 86%
    04:00 -1°C° 0 mm 3 mps 767 mmHg 86%
    05:00 -1°C° 0 mm 3 mps 768 mmHg 86%
    06:00 -1°C° 0 mm 2 mps 768 mmHg 85%
    07:00 0°C° 0 mm 3 mps 768 mmHg 79%
    08:00 +1°C° 0 mm 3 mps 769 mmHg 73%
    09:00 +1°C° 0 mm 4 mps 769 mmHg 66%
    10:00 +3°C° 0 mm 4 mps 769 mmHg 63%
    11:00 +4°C° 0 mm 3 mps 769 mmHg 60%
    12:00 +4°C° 0 mm 3 mps 769 mmHg 58%
    13:00 +4°C° 0 mm 3 mps 769 mmHg 59%
    14:00 +4°C° 0 mm 3 mps 769 mmHg 61%
    15:00 +4°C° 0 mm 3 mps 769 mmHg 62%
    16:00 +3°C° 0 mm 3 mps 769 mmHg 67%
    17:00 +2°C° 0 mm 3 mps 769 mmHg 71%
    18:00 +1°C° 0 mm 3 mps 769 mmHg 76%
    19:00 +2°C° 0 mm 2 mps 769 mmHg 77%
    20:00 +2°C° 0 mm 2 mps 769 mmHg 78%
    21:00 +1°C° 0 mm 2 mps 769 mmHg 79%
    22:00 +1°C° 0 mm 2 mps 769 mmHg 80%
    23:00 +1°C° 0 mm 2 mps 769 mmHg 80%

    20 October, Sunday

    Time Temperature Precipitation Wind Pressure Humidity
    00:00 +1°C° 0 mm 2 mps 769 mmHg 81%
    01:00 +1°C° 0 mm 2 mps 769 mmHg 81%
    02:00 +1°C° 0 mm 2 mps 769 mmHg 81%
    03:00 -1°C° 0 mm 2 mps 769 mmHg 81%
    04:00 -1°C° 0 mm 2 mps 769 mmHg 81%
    05:00 -1°C° 0 mm 2 mps 769 mmHg 81%
    06:00 -1°C° 0 mm 2 mps 769 mmHg 81%
    07:00 +1°C° 0 mm 2 mps 769 mmHg 77%
    08:00 +1°C° 0 mm 3 mps 769 mmHg 72%
    09:00 +2°C° 0 mm 3 mps 769 mmHg 68%
    10:00 +3°C° 0 mm 3 mps 769 mmHg 65%
    11:00 +4°C° 0 mm 3 mps 770 mmHg 62%
    12:00 +5°C° 0 mm 3 mps 770 mmHg 58%
    13:00 +7°C° 0 mm 2 mps 769 mmHg 59%
    14:00 +7°C° 0 mm 2 mps 769 mmHg 59%
    15:00 +8°C° 0 mm 1 mps 769 mmHg 59%
    16:00 +7°C° 0 mm 1 mps 769 mmHg 61%
    17:00 +7°C° 0 mm 1 mps 769 mmHg 63%
    18:00 +6°C° 0 mm 1 mps 770 mmHg 65%
    19:00 +6°C° 0 mm 1 mps 770 mmHg 65%
    20:00 +6°C° 0 mm 1 mps 770 mmHg 65%
    21:00 +6°C° 0 mm 1 mps 770 mmHg 65%
    22:00 +6°C° 0 mm 1 mps 770 mmHg 65%
    23:00 +6°C° 0 mm 1 mps 770 mmHg 65%
    Show more